Terminal Aerodrome Forecast
Issued by NWS Tampa Bay Area, FL

Home | Current Version | Previous Version | Text Only | Print | Product List | Glossary On
Versions: 1 2 3 4 5 6 7 8 9 10 11 12 13 14 15 16 17 18
000
FTUS42 KTBW 140500
TAFFMY
TAF
KFMY 140535Z 1406/1506 VRB03KT P6SM FEW100 SCT250
     FM141600 20005KT P6SM VCTS SCT025CB SCT250
     FM150000 24007KT P6SM FEW100 BKN250
     FM150400 18004KT P6SM FEW100 SCT250=

USA.gov is the U.S. government's official web portal to all federal, state and local government web resources and services.